[[{"header":{"parameterUnit":"m.s-1","parameterCategory":1,"la1":30.2991,"la2":30.254,"lo1":-89.0895,"lo2":-89.0444,"dy":0.0017,"dx":0.0017,"nx":28,"ny":28,"refTime":"2025-07-18T03:00:00:Z","depth":0,"parameterNumber":2,"parameterNumberName":"U-component_of_WINDS"},"data":[0,0,0,0,0,0,0,0,0,0,0,0,0,0,0,0,0,0,0,0,0,0,0,0,0,0,0,0,0,0,0,0,0,0,0,0,0,0,0,0,0,0,0,0,0,0,0,0,0,0,0,0,0,0,0,0,0,0,1.2801,1.2801,0,1.2814,1.2814,1.2814,1.2762,1.276,1.2759,1.2757,1.2771,1.2773,1.2775,0,0,0,0,0,0,0,0,0,0,0,0,0,1.273,1.2732,1.28,1.2801,1.2801,1.2813,1.2814,1.2814,1.2762,1.276,1.2759,1.2757,1.2771,1.2773,1.2775,0,0,0,0,0,0,0,0,0,0,0,0,0,1.2754,1.2732,1.28,1.2777,1.2775,1.2813,1.2814,1.2814,1.2763,1.276,1.2758,1.2756,1.277,1.2773,1.2775,1.2838,0,0,1.2783,1.2785,0,0,0,0,0,0,0,0,1.2753,1.2756,1.278,1.2778,1.2776,1.2784,1.2794,1.2822,1.2763,1.2767,1.2757,1.2755,1.2777,1.2779,1.2787,1.2838,1.2839,1.2784,1.2785,1.2786,1.2787,0,0,0,0,0,0,0,1.2751,1.2756,1.2806,1.278,1.2778,1.2765,1.2766,1.2799,1.2785,1.2767,1.2763,1.2765,1.2776,1.2784,1.2787,1.2839,1.2784,1.2786,1.2788,1.2789,1.2941,1.2943,0,0,0,0,0,0,1.2753,1.2755,1.2805,1.2806,1.2758,1.2768,1.2769,1.2784,1.2784,1.2782,1.2767,1.2763,1.2781,1.2784,1.2787,1.2859,1.2786,1.2789,1.279,1.2939,1.2942,1.2944,0,0,0,0,0,0,1.2751,1.2758,1.2805,1.2779,1.2784,1.2772,1.2789,1.2785,1.2793,1.2785,1.2782,1.2778,1.2779,1.2783,1.2825,1.2859,1.279,1.2793,1.2936,1.294,1.2943,1.3004,0,0,0,0,0,0,1.2749,1.2757,1.2781,1.278,1.2786,1.2843,1.2791,1.2787,1.2798,1.2793,1.2795,1.2793,1.2778,1.2821,1.2828,1.2861,1.2795,1.2933,1.2938,1.2942,1.2999,1.301,1.3019,0,0,0,0,0,1.2747,1.2799,1.2783,1.2789,1.2815,1.2845,1.2848,1.283,1.2801,1.2825,1.2819,1.2793,1.2854,1.2826,1.2833,1.2868,1.2931,1.2936,1.2942,1.2995,1.3008,1.3018,0,0,0,0,0,0,1.2804,1.2798,1.278,1.2833,1.284,1.2836,1.2866,1.2844,1.2859,1.2853,1.283,1.2831,1.2876,1.2876,1.2845,1.2927,1.2887,1.2895,1.2926,1.2938,1.2947,1.2946,1.2797,0,0,0,0,0,1.2823,1.2848,1.2841,1.2888,1.2892,1.2879,1.2891,1.2876,1.2882,1.2885,1.2882,1.2889,1.2909,1.2924,1.2942,1.2999,1.2998,1.3026,1.3036,1.3044,1.305,1.3079,1.3091,1.2962,1.2962,1.2962,0,0,1.2862,1.2862,1.2879,1.2899,1.2903,1.2928,1.2881,1.2911,1.2929,1.2889,1.2928,1.2926,1.2933,1.2982,1.3003,1.2983,1.3086,1.3051,1.3057,1.3059,1.3086,1.3098,1.3109,1.2966,1.2965,1.2965,0,0,1.2946,1.2949,1.2987,1.2992,1.2997,1.2988,1.2997,1.2996,1.2994,1.3032,1.3002,1.3024,1.3061,1.3066,1.3073,1.3158,1.3134,1.3165,1.3215,1.3243,1.3253,1.3262,1.3291,1.3302,1.3171,1.3171,1.3171,0,1.2994,1.3031,1.301,1.3041,1.3051,1.3015,1.3053,1.3059,1.3071,1.3078,1.3055,1.3099,1.3101,1.315,1.317,1.3178,1.3187,1.3164,1.3253,1.3262,1.327,1.3297,1.3308,1.3175,1.3174,1.3174,1.3174,0,1.3089,1.3115,1.3146,1.3157,1.317,1.3205,1.3189,1.3205,1.3188,1.3181,1.322,1.3221,1.3238,1.3249,1.3234,1.3296,1.3283,1.3257,1.3216,1.3286,1.3311,1.3322,1.318,1.3179,1.3178,1.3177,0,0,1.321,1.3208,1.322,1.3224,1.3227,1.3247,1.3279,1.3296,1.3309,1.3319,1.3345,1.3376,1.3352,1.336,1.3345,1.337,1.3435,1.3341,1.3341,1.3357,1.3502,1.3521,1.3534,1.342,1.3422,1.3423,1.3502,0,1.3291,1.3346,1.3328,1.3384,1.3407,1.3373,1.3402,1.3407,1.34,1.3419,1.3412,1.3434,1.3401,1.3406,1.3429,1.3423,1.3464,1.3417,1.3443,1.3444,1.3442,1.3547,1.3567,1.3641,1.3511,1.3513,1.3514,0,1.3393,1.3405,1.3464,1.3462,1.3471,1.3497,1.351,1.3528,1.3533,1.3526,1.3535,1.3515,1.3546,1.3506,1.3548,1.3516,1.3526,1.3525,1.3527,1.3528,1.3483,1.355,1.3664,1.3675,1.353,1.3529,1.3528,0,1.3473,1.3505,1.3543,1.3548,1.3547,1.3566,1.3566,1.3568,1.3579,1.3591,1.3597,1.3613,1.3621,1.3633,1.3617,1.3589,1.3661,1.362,1.3656,1.3657,1.3672,1.3672,1.3789,1.3681,1.368,1.368,1.368,0,1.3565,1.3602,1.3579,1.3603,1.3643,1.3621,1.3661,1.3658,1.366,1.3682,1.3654,1.3675,1.3653,1.3672,1.366,1.3696,1.37,1.3695,1.3691,1.3697,1.3698,1.3703,1.3697,1.3683,1.3682,1.3682,1.3681,0,1.3662,1.3648,1.3688,1.3683,1.3683,1.3712,1.3708,1.3729,1.3721,1.3749,1.3754,1.3741,1.3762,1.3747,1.3769,1.376,1.3807,1.3797,1.3806,1.3803,1.3839,1.3836,1.3963,1.3979,1.3861,1.3863,1.3864,0,1.3721,1.3748,1.3746,1.3759,1.3761,1.3782,1.3792,1.3772,1.3784,1.379,1.3811,1.3829,1.3843,1.3878,1.387,1.3886,1.3875,1.3918,1.3877,1.3881,1.3874,1.3872,1.3874,1.3926,1.3928,1.3929,1.393,0,1.3827,1.3819,1.3835,1.3848,1.3862,1.3872,1.3879,1.3891,1.387,1.3885,1.3906,1.3916,1.3937,1.3956,1.3968,1.3968,1.3946,1.3943,1.3952,1.3958,1.3961,1.3959,1.3828,1.394,1.3939,1.3938,1.3938,1.3937,1.3906,1.3928,1.393,1.3948,1.3952,1.3959,1.3978,1.3972,1.3989,1.4004,1.3991,1.4016,1.4018,1.4033,1.4036,1.4054,1.4036,1.405,1.4053,1.4057,1.4061,1.3959,1.4057,1.4057,1.4056,1.4056,1.4056,0,1.4009,1.4008,1.4026,1.4037,1.4051,1.4028,1.4035,1.4049,1.4071,1.4075,1.4089,1.4112,1.4129,1.4123,1.4138,1.4154,1.4144,1.4159,1.4157,1.4157,1.4077,1.4067,1.4167,1.4167,1.4167,1.4167,1.4167,1.4167,1.4065,1.41,1.4092,1.4129,1.4128,1.4151,1.4157,1.4163,1.4167,1.4194,1.4208,1.4203,1.4203,1.4218,1.4233,1.423,1.4237,1.4255,1.4249,1.4174,1.4163,1.4152,1.4143,1.4257,1.4257,1.4327,1.4328,1.4328]},{"header":{"parameterUnit":"m.s-1","parameterCategory":1,"la1":30.2991,"la2":30.254,"lo1":-89.0895,"lo2":-89.0444,"dy":0.0017,"dx":0.0017,"nx":28,"ny":28,"refTime":"2025-07-18T03:00:00:Z","depth":0,"parameterNumber":3,"parameterNumberName":"V-component_of_WINDS"},"data":[0,0,0,0,0,0,0,0,0,0,0,0,0,0,0,0,0,0,0,0,0,0,0,0,0,0,0,0,0,0,0,0,0,0,0,0,0,0,0,0,0,0,0,0,0,0,0,0,0,0,0,0,0,0,0,0,0,0,4.7391,4.7393,0,4.7521,4.7523,4.7524,4.751,4.7508,4.7506,4.7504,4.763,4.7636,4.7641,0,0,0,0,0,0,0,0,0,0,0,0,0,4.7123,4.7128,4.7391,4.7393,4.7394,4.7521,4.7523,4.7525,4.751,4.7508,4.7505,4.7503,4.7629,4.7635,4.7641,0,0,0,0,0,0,0,0,0,0,0,0,0,4.7245,4.713,4.7391,4.7403,4.7405,4.7521,4.7523,4.7525,4.7511,4.7508,4.7505,4.7502,4.7627,4.7634,4.7642,4.7752,0,0,4.7666,4.767,0,0,0,0,0,0,0,0,4.7238,4.7255,4.7399,4.7402,4.7405,4.7496,4.7475,4.7601,4.7512,4.7471,4.7504,4.75,4.7588,4.7599,4.763,4.7758,4.7764,4.7667,4.7672,4.7675,4.7677,0,0,0,0,0,0,0,4.723,4.7249,4.7442,4.7401,4.7405,4.7399,4.7413,4.7499,4.7544,4.7474,4.7473,4.7489,4.7589,4.7622,4.7633,4.7765,4.7667,4.7674,4.7679,4.7682,4.7989,4.7992,0,0,0,0,0,0,4.7219,4.7242,4.7438,4.7446,4.7312,4.7406,4.7422,4.747,4.7544,4.7552,4.7492,4.7488,4.761,4.7623,4.7637,4.777,4.7675,4.7683,4.7687,4.7985,4.799,4.7993,0,0,0,0,0,0,4.7213,4.7237,4.7433,4.7344,4.7369,4.7414,4.7468,4.7474,4.7508,4.7557,4.7565,4.7518,4.7608,4.7626,4.7724,4.7774,4.7686,4.7693,4.7981,4.7987,4.7991,4.8036,0,0,0,0,0,0,4.7206,4.7235,4.7279,4.7345,4.7374,4.752,4.7472,4.7479,4.7522,4.7519,4.7584,4.7591,4.7607,4.7712,4.7732,4.7783,4.7699,4.7977,4.7984,4.799,4.8031,4.8042,4.8053,0,0,0,0,0,4.7196,4.7285,4.7281,4.7305,4.743,4.7523,4.7539,4.7557,4.7526,4.757,4.7601,4.7589,4.7765,4.7722,4.7744,4.7799,4.7974,4.7982,4.7989,4.8026,4.804,4.8052,0,0,0,0,0,0,4.7221,4.7294,4.7291,4.7404,4.7458,4.752,4.7576,4.7572,4.7634,4.7628,4.7646,4.766,4.7759,4.7789,4.7739,4.7908,4.7865,4.7878,4.7885,4.7899,4.791,4.79,4.7706,0,0,0,0,0,4.7241,4.7312,4.7371,4.7465,4.7493,4.753,4.7571,4.7581,4.7636,4.7658,4.7697,4.7749,4.7816,4.7859,4.7924,4.8035,4.8048,4.8083,4.8094,4.8103,4.8113,4.8172,4.8188,4.8018,4.8018,4.8018,0,0,4.728,4.7329,4.7373,4.7472,4.7514,4.7586,4.7549,4.7626,4.7679,4.7669,4.7764,4.7794,4.7853,4.7958,4.8006,4.7986,4.8163,4.8113,4.8119,4.8125,4.8182,4.8198,4.8212,4.8024,4.8023,4.8022,0,0,4.7388,4.7433,4.7517,4.756,4.7626,4.765,4.767,4.7734,4.7754,4.785,4.7844,4.7905,4.8021,4.8063,4.8099,4.8223,4.8214,4.8244,4.83,4.8358,4.8371,4.8383,4.8426,4.8441,4.8254,4.8254,4.8254,0,4.7428,4.7539,4.7559,4.7638,4.7681,4.7677,4.776,4.78,4.7883,4.7911,4.7888,4.8033,4.8072,4.8186,4.8216,4.8247,4.8268,4.8236,4.8368,4.838,4.8392,4.8433,4.8449,4.8257,4.8257,4.8256,4.8256,0,4.7584,4.766,4.7719,4.7801,4.785,4.793,4.7961,4.8008,4.8013,4.8039,4.8136,4.8183,4.8257,4.8285,4.829,4.8399,4.8384,4.8365,4.8321,4.8411,4.8449,4.8465,4.8261,4.826,4.8259,4.8259,0,0,4.7711,4.7804,4.7825,4.7862,4.7934,4.7992,4.8071,4.8145,4.8184,4.8241,4.8306,4.8404,4.8386,4.8427,4.8437,4.8488,4.8581,4.8462,4.8463,4.8481,4.8702,4.8716,4.8734,4.8576,4.8579,4.8581,4.8697,0,4.7826,4.7969,4.7989,4.8114,4.8183,4.818,4.8249,4.8299,4.8325,4.8385,4.8413,4.8482,4.8454,4.8479,4.8529,4.8559,4.8625,4.8551,4.8634,4.8637,4.8619,4.8754,4.8769,4.8876,4.8712,4.8715,4.8717,0,4.7979,4.8042,4.8174,4.8236,4.8266,4.8327,4.8396,4.8455,4.8511,4.8526,4.8573,4.8576,4.8655,4.8609,4.8717,4.8667,4.8701,4.8721,4.8726,4.8733,4.8681,4.8764,4.8911,4.8926,4.8741,4.8739,4.8737,0,4.8057,4.8174,4.8269,4.83,4.8375,4.8418,4.8451,4.8504,4.8547,4.8606,4.8634,4.8701,4.8737,4.8788,4.8808,4.8773,4.8914,4.8871,4.8927,4.8927,4.8956,4.8954,4.9109,4.8981,4.8981,4.898,4.898,0,4.8182,4.8262,4.8305,4.8362,4.8452,4.8473,4.856,4.8591,4.8639,4.87,4.8702,4.8759,4.8783,4.8844,4.886,4.8946,4.8962,4.8975,4.8978,4.8974,4.8973,4.8997,4.8989,4.8985,4.8984,4.8983,4.8982,0,4.8284,4.8316,4.8418,4.8481,4.8498,4.8561,4.8614,4.8668,4.8694,4.8772,4.8791,4.8831,4.8902,4.8928,4.9014,4.9024,4.9124,4.9121,4.9106,4.9106,4.916,4.9154,4.9336,4.936,4.9217,4.9218,4.9219,0,4.8361,4.8423,4.8493,4.8536,4.8571,4.8639,4.8683,4.8706,4.8752,4.882,4.8866,4.8937,4.8996,4.9109,4.9144,4.9209,4.9207,4.9266,4.9217,4.9211,4.9206,4.9202,4.9207,4.9275,4.9276,4.9278,4.9279,0,4.8494,4.8507,4.8572,4.8642,4.8695,4.8751,4.8805,4.8839,4.887,4.892,4.8994,4.904,4.9129,4.9199,4.9266,4.9297,4.9292,4.9294,4.931,4.9306,4.9294,4.93,4.9129,4.9289,4.9288,4.9288,4.9287,4.9287,4.8585,4.864,4.8698,4.8769,4.8813,4.8863,4.8918,4.8951,4.9014,4.9089,4.9098,4.9177,4.923,4.932,4.9354,4.9414,4.9398,4.9422,4.9428,4.9433,4.9436,4.9286,4.9427,4.9426,4.9426,4.9426,4.9426,0,4.8717,4.8754,4.882,4.8897,4.8953,4.8946,4.9005,4.9052,4.9122,4.9173,4.9231,4.9315,4.9383,4.9423,4.9491,4.9531,4.9531,4.9548,4.9544,4.9551,4.9448,4.9426,4.9547,4.9547,4.9547,4.9547,4.9547,4.9547,4.8792,4.8884,4.8904,4.9016,4.9052,4.9132,4.9166,4.9211,4.9252,4.9347,4.9404,4.943,4.9476,4.9547,4.9608,4.9618,4.9642,4.9661,4.9669,4.9571,4.9559,4.9547,4.9527,4.9666,4.9666,4.9767,4.9768,4.9769]}]]